Weather reports worldwide

Advertisment
St. James's Park, United Kingdom (3770): temperature & dewpoint: 15.08.2017 11:00:00 - 21.08.2017 11:00:00 (BST)St. James's Park, United Kingdom (3770): temperature -20cm & temperature -100cm: 15.08.2017 11:00:00 - 21.08.2017 11:00:00 (BST)St. James's Park, United Kingdom (3770): wind speed: 15.08.2017 11:00:00 - 21.08.2017 11:00:00 (BST)St. James's Park, United Kingdom (3770): wind direction: 15.08.2017 11:00:00 - 21.08.2017 11:00:00 (BST)St. James's Park, United Kingdom (3770): visibility: 15.08.2017 11:00:00 - 21.08.2017 11:00:00 (BST)St. James's Park, United Kingdom (3770): precipitation: 15.08.2017 11:00:00 - 21.08.2017 11:00:00 (BST)
Date & Time tt [°C] td [°C] tt -20cm [°C] tt -100cm [°C] ff [km/h] ff [kn] dd vv [km] rr [mm]
21.08.2017 11:00:00 16,5 14,9 - - - - - - 0,0
21.08.2017 10:00:00 15,7 14,8 18,2 18,7 - - - - 0,0
21.08.2017 09:00:00 15,3 14,9 - - - - - - 0,0
21.08.2017 08:00:00 14,9 14,5 - - - - - - 0,2
21.08.2017 07:00:00 14,6 14,2 - - - - - - 0,4
21.08.2017 06:00:00 14,4 14,0 - - - - - - 0,2
21.08.2017 05:00:00 14,3 13,9 - - - - - - 0,2
21.08.2017 04:00:00 14,2 13,8 - - - - - - 1,0
21.08.2017 03:00:00 14,3 13,6 - - - - - - 0,0
21.08.2017 02:00:00 14,1 13,5 - - - - - - 0,4
21.08.2017 01:00:00 14,1 13,5 - - - - - - 0,8
21.08.2017 00:00:00 14,2 13,1 - - - - - - 0,4
20.08.2017 23:00:00 14,1 13,2 - - - - - - 0,4
20.08.2017 22:00:00 14,2 12,8 - - - - - - 0,4
20.08.2017 21:00:00 14,9 12,1 - - - - - - 0,0
20.08.2017 20:00:00 15,7 12,7 - - - - - - 0,2
20.08.2017 19:00:00 17,5 12,6 - - - - - - 0,0
20.08.2017 18:00:00 19,0 11,2 - - - - - - 0,0
20.08.2017 17:00:00 19,8 10,1 - - - - - - 0,0
20.08.2017 16:00:00 20,6 9,4 - - - - - - 0,0
20.08.2017 15:00:00 21,0 10,4 - - - - - - 0,0
20.08.2017 14:00:00 19,5 9,0 - - - - - - 0,0
20.08.2017 13:00:00 19,6 9,3 - - - - - - 0,0
20.08.2017 12:00:00 19,3 9,8 - - - - - - 0,0
20.08.2017 11:00:00 17,8 10,0 - - - - - - 0,0
20.08.2017 10:00:00 16,4 10,5 17,2 18,7 - - - - 0,0
20.08.2017 09:00:00 14,3 10,6 - - - - - - 0,0
20.08.2017 08:00:00 12,2 9,8 - - - - - - 0,0
20.08.2017 07:00:00 10,9 9,6 - - - - - - 0,0
20.08.2017 06:00:00 10,7 9,4 - - - - - - 0,0
20.08.2017 05:00:00 10,7 9,2 - - - - - - 0,0
20.08.2017 04:00:00 11,2 9,3 - - - - - - 0,0
20.08.2017 03:00:00 11,8 9,3 - - - - - - 0,0
20.08.2017 02:00:00 12,5 9,3 - - - - - - 0,0
20.08.2017 01:00:00 13,0 9,1 - - - - - - 0,0
20.08.2017 00:00:00 13,6 8,9 - - - - - - 0,0
19.08.2017 23:00:00 14,6 8,8 - - - - - - 0,0
19.08.2017 22:00:00 15,5 8,2 - - - - - - 0,0
19.08.2017 21:00:00 16,2 7,7 - - - - - - 0,0
19.08.2017 20:00:00 17,2 7,9 - - - - - - 0,0
19.08.2017 19:00:00 18,2 7,4 - - - - - - 0,0
19.08.2017 18:00:00 19,1 7,8 - - - - - - 0,0
19.08.2017 17:00:00 19,6 6,9 - - - - - - 0,0
19.08.2017 16:00:00 19,9 7,5 - - - - - - 0,0
19.08.2017 15:00:00 19,3 8,2 - - - - - - 0,0
19.08.2017 14:00:00 19,0 9,1 - - - - - - 0,0
19.08.2017 13:00:00 18,2 9,5 - - - - - - 0,0
19.08.2017 12:00:00 18,0 9,3 - - - - - - 0,0
19.08.2017 11:00:00 17,6 9,9 - - - - - - 0,0
19.08.2017 10:00:00 17,1 10,1 19,0 18,7 - - - - 0,0
19.08.2017 09:00:00 15,4 10,9 - - - - - - 0,0
19.08.2017 08:00:00 14,2 11,5 - - - - - - 0,0
19.08.2017 07:00:00 13,2 11,4 - - - - - - 0,0
19.08.2017 06:00:00 13,4 11,7 - - - - - - 0,0
19.08.2017 05:00:00 13,6 11,7 - - - - - - 0,0
19.08.2017 04:00:00 13,8 11,6 - - - - - - 0,0
19.08.2017 03:00:00 14,0 11,3 - - - - - - 0,0
19.08.2017 02:00:00 14,4 11,0 - - - - - - 0,0
19.08.2017 01:00:00 14,8 10,3 - - - - - - 0,0
19.08.2017 00:00:00 15,0 9,6 - - - - - - 0,0
18.08.2017 23:00:00 15,0 9,4 - - - - - - 0,0
18.08.2017 22:00:00 15,0 9,9 - - - - - - 0,0
18.08.2017 21:00:00 15,3 10,9 - - - - - - 0,0
18.08.2017 20:00:00 15,5 10,6 - - - - - - 0,0
18.08.2017 19:00:00 15,6 10,8 - - - - - - 0,0
18.08.2017 18:00:00 16,3 10,7 - - - - - - 0,0
18.08.2017 17:00:00 13,5 10,4 - - - - - - 0,6
18.08.2017 16:00:00 14,4 11,2 - - - - - - 1,6
18.08.2017 15:00:00 17,7 10,8 - - - - - - 0,0
18.08.2017 14:00:00 18,2 9,7 - - - - - - 0,0
18.08.2017 13:00:00 17,2 12,3 - - - - - - 0,2
18.08.2017 12:00:00 19,3 10,2 - - - - - - 0,0
18.08.2017 11:00:00 18,6 12,2 - - - - - - 0,0
18.08.2017 10:00:00 17,6 13,4 19,4 18,7 - - - - 0,0
18.08.2017 09:00:00 16,5 13,6 - - - - - - 0,0
18.08.2017 08:00:00 15,2 13,8 - - - - - - 0,2
18.08.2017 07:00:00 15,0 14,0 - - - - - - 0,6
18.08.2017 06:00:00 15,8 14,8 - - - - - - 6,0
18.08.2017 05:00:00 16,4 14,3 - - - - - - 0,0
18.08.2017 04:00:00 16,1 13,9 - - - - - - 0,0
18.08.2017 03:00:00 16,4 13,7 - - - - - - 0,0
18.08.2017 02:00:00 16,2 13,5 - - - - - - 0,0
18.08.2017 01:00:00 16,6 13,8 - - - - - - 0,0
18.08.2017 00:00:00 17,0 14,1 - - - - - - 0,0
17.08.2017 23:00:00 17,5 14,2 - - - - - - 0,0
17.08.2017 22:00:00 18,2 14,5 - - - - - - 0,0
17.08.2017 21:00:00 18,8 14,7 - - - - - - 0,0
17.08.2017 20:00:00 20,3 14,2 - - - - - - 0,0
17.08.2017 19:00:00 21,6 14,7 - - - - - - 0,0
17.08.2017 18:00:00 22,6 12,6 - - - - - - 0,0
17.08.2017 17:00:00 22,5 15,0 - - - - - - 0,0
17.08.2017 16:00:00 23,9 15,3 - - - - - - 0,0
17.08.2017 15:00:00 23,6 15,2 - - - - - - 0,0
17.08.2017 14:00:00 24,0 13,8 - - - - - - 0,0
17.08.2017 13:00:00 22,5 16,2 - - - - - - 0,0
17.08.2017 12:00:00 21,3 16,1 - - - - - - 0,0
17.08.2017 11:00:00 20,3 17,4 - - - - - - 0,0
17.08.2017 10:00:00 19,1 17,6 19,2 18,7 - - N - 0,0
17.08.2017 09:00:00 18,6 17,3 - - - - - - 0,0
17.08.2017 08:00:00 17,9 16,9 - - - - - - 0,0
17.08.2017 07:00:00 17,4 16,6 - - - - - - 0,2
17.08.2017 06:00:00 17,1 16,2 - - - - - - 0,0
17.08.2017 05:00:00 16,6 15,8 - - - - - - 0,8
17.08.2017 04:00:00 16,7 15,1 - - - - - - 0,0
17.08.2017 03:00:00 16,0 14,9 - - - - - - 0,0
17.08.2017 02:00:00 15,6 13,9 - - - - - - 2,0
17.08.2017 01:00:00 17,8 11,6 - - - - - - 0,0
17.08.2017 00:00:00 17,1 12,1 - - - - - - 0,0
16.08.2017 23:00:00 16,9 11,4 - - - - - - 0,0
16.08.2017 22:00:00 17,4 11,3 - - - - - 0,3 0,0
16.08.2017 21:00:00 18,1 11,3 - - - - - - 0,0
16.08.2017 20:00:00 19,1 12,1 - - - - - - 0,0
16.08.2017 19:00:00 19,8 12,0 - - - - - - 0,0
16.08.2017 18:00:00 21,3 11,0 - - - - - - 0,0
16.08.2017 17:00:00 21,4 10,2 - - - - - - 0,0
16.08.2017 16:00:00 22,6 11,1 - - - - - - 0,0
16.08.2017 15:00:00 21,9 9,8 - - - - - - 0,0
16.08.2017 14:00:00 21,2 11,2 - - - - - - 0,0
16.08.2017 13:00:00 20,4 11,3 - - - - - - 0,0
16.08.2017 12:00:00 19,2 11,3 - - - - - - 0,0
16.08.2017 11:00:00 18,7 12,8 - - - - - - 0,0
16.08.2017 10:00:00 17,5 11,2 19,2 18,7 39 21 N - 0,0
16.08.2017 09:00:00 16,0 11,3 - - - - - - 0,0
16.08.2017 08:00:00 14,2 10,5 - - - - - - 0,0
16.08.2017 07:00:00 13,0 10,2 - - - - - - 0,0
16.08.2017 06:00:00 11,8 9,8 - - - - - - 0,0
16.08.2017 05:00:00 11,9 9,7 - - - - - - 0,0
16.08.2017 04:00:00 12,3 9,4 - - - - - - 0,0
16.08.2017 03:00:00 13,1 9,2 - - - - - - 0,0
16.08.2017 02:00:00 13,6 9,2 - - - - - - 0,0
16.08.2017 01:00:00 14,2 9,4 - - - - - - 0,0
16.08.2017 00:00:00 15,1 9,0 - - - - - - 0,0
15.08.2017 23:00:00 17,2 8,4 - - - - - - 0,0
15.08.2017 22:00:00 18,3 8,7 - - - - - - 0,0
15.08.2017 21:00:00 18,8 9,0 - - - - - - 0,0
15.08.2017 20:00:00 20,5 9,1 - - - - - - 0,0
15.08.2017 19:00:00 21,6 10,5 - - - - - - 0,0
15.08.2017 18:00:00 22,5 11,0 - - - - - - 0,0
15.08.2017 17:00:00 22,4 9,6 - - - - - - 0,0
15.08.2017 16:00:00 23,2 10,5 - - - - - - 0,0
15.08.2017 15:00:00 21,7 11,6 - - - - - - 0,0
15.08.2017 14:00:00 21,3 11,9 - - - - - - 0,0
15.08.2017 13:00:00 21,5 13,2 - - - - - - 0,0
15.08.2017 12:00:00 20,3 13,3 - - - - - - 0,0
15.08.2017 11:00:00 20,0 14,2 - - - - - - 0,0

tt = temperature
td = dewpoint
tt -20cm = temperature -20cm
tt -100cm = temperature -100cm
ff = wind speed
dd = wind direction
vv = visibility
rr = precipitation

Next stations